This demonstration page uses our WeatherBlox Daily Observations layout. Learn more.

Left ArrowRight Arrow

39.01783, -85.05884

Hourly Observations for August 18, 2015

Temp ( °F °C ) Dew Point ( °F °C ) Humidity (%) Winds ( mph kmh ) Pressure ( in mb ) Visibility ( mi km ) Precip ( " mm )
12:52 am 00:52 Mostly Cloudy 71 21.7 68 20 90 90 S 5 7 30.01 1016 9 14.48406 N/A
1:52 am 01:52 Mostly Clear 69 20.6 67 19.4 93 93 SSW 3 6 30 1016 8 12.87472 N/A
2:52 am 02:52 Mostly Clear with Mist and Fog 68 20 67 19.4 96 96 N N/A 29.98 1015 5 8.0467 N/A
3:52 am 03:52 Clear with Mist and Fog 67 19.4 66 18.9 97 97 N N/A 29.97 1015 6 9.65604 N/A
4:52 am 04:52 Clear with Mist and Fog 68 20 67 19.4 96 96 N N/A 29.96 1015 5 8.0467 N/A
5:52 am 05:52 Mostly Clear with Patchy Fog 68 20 67 19.4 96 96 N N/A 29.96 1014 2 3.21868 N/A
6:52 am 06:52 Mostly Cloudy with Patchy Fog 68 20 67 19.4 96 96 N N/A 29.95 1014 2 3.21868 N/A
7:52 am 07:52 Mostly Cloudy with Mist and Fog 69 20.6 68 20 96 96 N N/A 29.98 1015 2.5 4.02335 N/A
8:10 am 08:10 Mostly Cloudy with Mist and Fog 70 21 70 21 100 100 N N/A 29.97 1015 3 4.82802 N/A
8:52 am 08:52 Cloudy with Mist and Fog 72 22.2 69 20.6 91 91 N N/A 29.99 1016 4 6.43736 N/A
9:38 am 09:38 Partly Cloudy 73 23 70 21 89 89 N N/A 29.97 1015 7 11.26538 N/A
10:04 am 10:04 Mostly Cloudy 73 23 70 21 89 89 N N/A 29.97 1015 8 12.87472 N/A
10:52 am 10:52 Mostly Cloudy 76 24.4 69 20.6 79 79 SSW 5 7 29.95 1014 9 14.48406 N/A
11:03 am 11:03 Mostly Cloudy 75 24 70 21 83 83 S 5 7 29.94 1014 9 14.48406 N/A
11:52 am 11:52 Mostly Cloudy 78 25.6 67 19.4 69 69 SSW 5 7 29.94 1014 10 16.0934 N/A
12:10 pm 12:10 Mostly Cloudy 79 26 70 21 74 74 S 6 9 29.94 1014 10 16.0934 N/A
1:52 pm 13:52 Mostly Cloudy 82 27.8 68 20 63 63 SSE 8 13 29.9 1013 10 16.0934 N/A
2:52 pm 14:52 Mostly Cloudy 83 28.3 68 20 61 61 SSW 5 7 29.88 1012 10 16.0934 N/A
3:52 pm 15:52 Mostly Cloudy 82 27.8 68 20 63 63 S 8 13 29.86 1011 10 16.0934 N/A
4:52 pm 16:52 Partly Cloudy 84 28.9 67 19.4 57 57 SW 6 9 29.85 1011 10 16.0934 N/A
5:52 pm 17:52 Partly Cloudy 84 28.9 68 20 59 59 S 7 11 29.83 1010 10 16.0934 N/A
6:52 pm 18:52 Partly Cloudy 83 28.3 68 20 61 61 S 7 11 29.81 1010 10 16.0934 N/A
7:52 pm 19:52 Partly Cloudy 81 27.2 68 20 65 65 SW 5 7 29.82 1010 10 16.0934 N/A
8:52 pm 20:52 Partly Cloudy 78 25.6 68 20 71 71 SSW 5 7 29.84 1010 10 16.0934 N/A
9:52 pm 21:52 Mostly Clear 75 23.9 68 20 79 79 SSW 3 6 29.85 1011 10 16.0934 N/A
10:52 pm 22:52 Clear 75 23.9 67 19.4 76 76 SW 3 6 29.85 1011 10 16.0934 N/A
11:52 pm 23:52 Mostly Clear 69 20.6 67 19.4 93 93 SSE 3 6 29.86 1011 10 16.0934 N/A

Powered by AerisWeather